New Iberia, LA

6:48 AM CST on November 19, 2017 (GMT -0600)
Acadiana Regional

Weather History for KARA - April, 2014

Change the Weather History Date:

Monday, April 14, 2014

  Actual Average Record
Temperature  
Mean Temperature 66 °F 68 °F  
Max Temperature 80 °F 79 °F 86 °F (2001)
Min Temperature 51 °F 56 °F 40 °F (1959)
Degree Days  
Heating Degree Days 0 2  
Month to date heating degree days 13 34  
Since 1 July heating degree days 1750 1398  
Cooling Degree Days 1 4  
Month to date cooling degree days 49 49  
Year to date cooling degree days 90 132  
Growing Degree Days 16 (Base 50)    
Moisture  
Dew Point 65 °F    
Average Humidity 84    
Maximum Humidity 94    
Minimum Humidity 74    
Precipitation  
Precipitation 1.09 in 0.15 in 2.45 in (1991)
Month to date precipitation 2.24 2.08  
Year to date precipitation 12.09 15.26  
Sea Level Pressure  
Sea Level Pressure 29.82 in    
Wind  
Wind Speed 14 mph (WSW)    
Max Wind Speed 29 mph    
Max Gust Speed 35 mph    
Visibility 6 miles    
Events Thunderstorm    
T = Trace of Precipitation, MM = Missing Value Source: NWS Daily Summary

Daily Weather History Graph

Daily Weather History Graph

Search for Another Location

Airport or City:

Trip Planner

Search our weather history database for the weather conditions in past years. The results will help you decide how hot, cold, wet, or windy it might be!

Date:

Astronomy

Apr. 14, 2014 Rise Set
Actual Time 6:41 AM CDT 7:34 PM CDT
Civil Twilight 6:17 AM CDT 7:58 PM CDT
Nautical Twilight 5:48 AM CDT 8:27 PM CDT
Astronomical Twilight 5:18 AM CDT 8:57 PM CDT
Moon 7:14 PM CDT (4/14) 6:10 AM CDT (4/14)
Length of Visible Light 13h 41m
Length of Day
12h 52m
Full, 100% of the Moon is Illuminated
Apr 14
Full
Apr 15
Full
Apr 22
Last Quarter
Apr 29
New
May 6
First Quarter

Hourly Weather History & Observations

Time (CDT) Temp. Heat Index Dew Point Humidity Pressure Visibility Wind Dir Wind Speed Gust Speed Precip Events Conditions
12:53 AM 73.9 °F - 69.1 °F 85% 29.84 in 10.0 mi South 12.7 mph 26.5 mph N/A   Overcast
1:18 AM 73.9 °F - 69.1 °F 85% 29.83 in 9.0 mi South 16.1 mph 25.3 mph N/A   Overcast
2:53 AM 75.0 °F - 70.0 °F 84% 29.81 in 8.0 mi South 17.3 mph 25.3 mph N/A   Overcast
3:53 AM 75.0 °F - 70.0 °F 84% 29.80 in 8.0 mi South 17.3 mph - N/A   Overcast
4:53 AM 73.9 °F - 70.0 °F 87% 29.80 in 8.0 mi South 12.7 mph 21.9 mph N/A   Overcast
5:53 AM 73.9 °F - 70.0 °F 87% 29.81 in 8.0 mi South 12.7 mph - N/A   Overcast
6:35 AM 73.9 °F - 70.0 °F 87% 29.80 in 8.0 mi South 11.5 mph - N/A   Overcast
6:53 AM 73.9 °F - 70.0 °F 87% 29.81 in 7.0 mi South 12.7 mph - N/A   Overcast
7:03 AM 73.9 °F - 70.0 °F 87% 29.81 in 7.0 mi South 15.0 mph - N/A   Overcast
7:16 AM 73.9 °F - 70.0 °F 87% 29.81 in 6.0 mi South 13.8 mph - N/A   Overcast
7:23 AM 73.9 °F - 70.0 °F 87% 29.82 in 7.0 mi South 13.8 mph - N/A   Overcast
7:40 AM 73.9 °F - 70.0 °F 87% 29.82 in 7.0 mi South 15.0 mph - N/A   Overcast
7:53 AM 73.9 °F - 70.0 °F 87% 29.84 in 7.0 mi South 11.5 mph - N/A   Overcast
8:53 AM 75.0 °F - 70.0 °F 84% 29.85 in 7.0 mi South 11.5 mph - N/A   Overcast
9:09 AM 75.0 °F - 70.0 °F 84% 29.85 in 7.0 mi South 16.1 mph 21.9 mph N/A   Overcast
9:19 AM 75.9 °F - 70.0 °F 82% 29.86 in 7.0 mi SSW 12.7 mph - N/A   Overcast
9:53 AM 75.9 °F - 70.0 °F 82% 29.87 in 8.0 mi South 13.8 mph - N/A   Overcast
10:06 AM 77.0 °F - 70.0 °F 79% 29.87 in 8.0 mi SSW 17.3 mph - N/A   Overcast
10:28 AM 77.0 °F - 70.0 °F 79% 29.88 in 8.0 mi SSW 10.4 mph - N/A   Overcast
10:53 AM 78.1 °F - 70.0 °F 76% 29.87 in 8.0 mi SSW 12.7 mph - N/A   Overcast
11:53 AM 79.0 °F - 70.0 °F 74% 29.86 in 9.0 mi SSW 10.4 mph - N/A   Overcast
12:48 PM 80.6 °F 83.9 °F 69.8 °F 70% 29.84 in 10.0 mi South 9.2 mph - N/A   Overcast
1:11 PM 78.1 °F - 69.1 °F 74% 29.82 in 10.0 mi SSW 8.1 mph - N/A   Overcast
1:39 PM 75.0 °F - 72.0 °F 90% 29.81 in 2.5 mi SSW 10.4 mph - N/A   Overcast
1:53 PM 75.0 °F - 73.0 °F 94% 29.80 in 1.8 mi South 5.8 mph - N/A   Overcast
1:58 PM 75.9 °F - 73.0 °F 91% 29.80 in 2.0 mi SSW 5.8 mph - N/A   Overcast
2:18 PM 75.0 °F - 72.0 °F 90% 29.79 in 2.5 mi South 4.6 mph - N/A   Overcast
2:53 PM 75.0 °F - 73.0 °F 94% 29.77 in 2.5 mi South 4.6 mph - 0.01 in   Overcast
3:16 PM 75.0 °F - 73.0 °F 94% 29.75 in 5.0 mi Calm Calm - N/A Thunderstorm Overcast
3:26 PM 75.0 °F - 72.0 °F 90% 29.74 in 5.0 mi SSE 5.8 mph - 0.01 in Thunderstorm Overcast
3:37 PM 73.9 °F - 72.0 °F 93% 29.74 in 1.8 mi South 6.9 mph - 0.07 in Thunderstorm Overcast
4:02 PM 72.0 °F - 68.0 °F 87% 29.75 in 1.8 mi West 8.1 mph - 0.06 in Thunderstorm Overcast
4:09 PM 72.0 °F - 68.0 °F 87% 29.73 in 3.0 mi WSW 10.4 mph - 0.07 in Thunderstorm Overcast
4:16 PM 71.1 °F - 68.0 °F 90% 29.74 in 2.5 mi West 5.8 mph - 0.10 in Thunderstorm Overcast
4:22 PM 71.1 °F - 68.0 °F 90% 29.73 in 3.0 mi NNE 8.1 mph - 0.10 in Thunderstorm Overcast
4:24 PM 71.1 °F - 68.0 °F 90% 29.74 in 4.0 mi NNE 4.6 mph - 0.11 in Thunderstorm Overcast
4:34 PM 70.0 °F - 68.0 °F 93% 29.74 in 2.5 mi Calm Calm - 0.13 in Thunderstorm Overcast
4:42 PM 70.0 °F - 68.0 °F 93% 29.75 in 1.5 mi West 3.5 mph - 0.18 in Thunderstorm Overcast
4:49 PM 69.8 °F - 68.0 °F 94% 29.73 in 1.2 mi Calm Calm - 0.22 in Thunderstorm Overcast
4:53 PM 70.0 °F - 68.0 °F 93% 29.75 in 1.5 mi SW 9.2 mph - 0.23 in Thunderstorm Overcast
5:05 PM 70.0 °F - 66.9 °F 90% 29.74 in 0.8 mi WNW 12.7 mph 21.9 mph 0.19 in Thunderstorm Overcast
5:08 PM 71.1 °F - 68.0 °F 90% 29.76 in 1.0 mi West 13.8 mph 21.9 mph 0.21 in Thunderstorm Overcast
5:14 PM 71.1 °F - 68.0 °F 90% 29.75 in 1.8 mi West 10.4 mph - 0.24 in   Overcast
5:24 PM 66.9 °F - 63.0 °F 87% 29.78 in 2.5 mi NW 26.5 mph 34.5 mph 0.26 in   Overcast
5:31 PM 66.9 °F - 63.0 °F 87% 29.77 in 6.0 mi NNW 23.0 mph 34.5 mph 0.26 in   Overcast
5:44 PM 66.0 °F - 61.0 °F 84% 29.80 in 10.0 mi NNW 19.6 mph 33.4 mph 0.26 in   Overcast
5:53 PM 66.0 °F - 61.0 °F 84% 29.80 in 10.0 mi NNW 23.0 mph 31.1 mph 0.26 in   Overcast
6:25 PM 64.9 °F - 60.1 °F 84% 29.80 in 10.0 mi North 15.0 mph 24.2 mph N/A   Mostly Cloudy
6:34 PM 64.0 °F - 60.1 °F 87% 29.80 in 10.0 mi North 11.5 mph - N/A   Mostly Cloudy
6:53 PM 63.0 °F - 57.9 °F 84% 29.81 in 10.0 mi North 12.7 mph 28.8 mph N/A   Mostly Cloudy
7:10 PM 61.0 °F - 57.0 °F 87% 29.82 in 10.0 mi North 17.3 mph 24.2 mph N/A   Mostly Cloudy
7:40 PM 60.1 °F - 55.9 °F 86% 29.80 in 10.0 mi North 19.6 mph 25.3 mph N/A   Overcast
7:53 PM 59.0 °F - 55.0 °F 87% 29.82 in 10.0 mi North 20.7 mph 27.6 mph N/A   Overcast
8:08 PM 57.9 °F - 54.0 °F 87% 29.85 in 10.0 mi NNW 20.7 mph 29.9 mph N/A   Overcast
8:27 PM 55.9 °F - 53.1 °F 90% 29.86 in 2.5 mi North 17.3 mph 32.2 mph 0.11 in Thunderstorm Overcast
8:35 PM 55.9 °F - 53.1 °F 90% 29.85 in 3.0 mi North 12.7 mph - 0.15 in Thunderstorm Overcast
8:37 PM 55.9 °F - 53.1 °F 90% 29.87 in 4.0 mi NNW 13.8 mph - 0.15 in Thunderstorm Overcast
8:53 PM 55.9 °F - 53.1 °F 90% 29.87 in 8.0 mi NNW 13.8 mph - 0.17 in   Overcast
9:07 PM 55.0 °F - 53.1 °F 93% 29.90 in 7.0 mi NW 16.1 mph - 0.01 in   Overcast
9:13 PM 55.0 °F - 52.0 °F 89% 29.91 in 9.0 mi NW 21.9 mph 28.8 mph 0.02 in Thunderstorm Overcast
9:53 PM 53.1 °F - 50.0 °F 89% 29.94 in 7.0 mi NNW 16.1 mph - 0.05 in   Overcast
10:34 PM 53.1 °F - 48.9 °F 86% 29.97 in 10.0 mi North 19.6 mph 26.5 mph 0.10 in   Overcast
10:53 PM 53.1 °F - 48.0 °F 83% 29.97 in 10.0 mi North 21.9 mph 28.8 mph 0.10 in   Overcast
11:53 PM 52.0 °F - 46.9 °F 83% 30.01 in 10.0 mi North 20.7 mph 25.3 mph N/A   Overcast